Bellefontaine, OH

9:54 AM EST on February 24, 2017 (GMT -0500)
Bellefontaine

Weather History for KEDJ - January, 2013

Change the Weather History Date:

Monday, January 21, 2013

  Actual Average (KDAY) Record (KDAY)
Temperature  
Mean Temperature 14 °F -  
Max Temperature 21 °F 35 °F 75 °F (1906)
Min Temperature 8 °F 20 °F -20 °F (1984)
Degree Days  
Heating Degree Days 50    
Moisture  
Dew Point 8 °F    
Average Humidity 69    
Maximum Humidity 86    
Minimum Humidity 46    
Precipitation  
Precipitation 0.00 in - - ()
Sea Level Pressure  
Sea Level Pressure 30.05 in    
Wind  
Wind Speed 10 mph (West)    
Max Wind Speed 23 mph    
Max Gust Speed 30 mph    
Visibility 9 miles    
Events      
Averages and records for this station are not official NWS values.
T = Trace of Precipitation, MM = Missing Value Source: NWS Daily Summary

Daily Weather History Graph

Daily Weather History Graph

Search for Another Location

Airport or City:

Trip Planner

Search our weather history database for the weather conditions in past years. The results will help you decide how hot, cold, wet, or windy it might be!

Date:

Astronomy

Jan. 21, 2013 Rise Set
Actual Time 7:53 AM EST 5:40 PM EST
Civil Twilight 7:23 AM EST 6:10 PM EST
Nautical Twilight 6:50 AM EST 6:43 PM EST
Astronomical Twilight 6:17 AM EST 7:15 PM EST
Moon 1:19 PM EST (1/21) 3:20 AM EST (1/21)
Length of Visible Light 10h 46m
Length of Day
9h 47m
Waxing Gibbous, 75% of the Moon is Illuminated
Jan 21
Waxing Gibbous
Jan 26
Full
Feb 3
Last Quarter
Feb 10
New
Feb 17
First Quarter

Hourly Weather History & Observations

Time (EST) Temp. Windchill Dew Point Humidity Pressure Visibility Wind Dir Wind Speed Gust Speed Precip Events Conditions
12:15 AM 21.2 °F 12.6 °F 15.8 °F 80% 30.11 in 10.0 mi North 6.9 mph - 0.00 in   Mostly Cloudy
12:35 AM 21.2 °F 12.6 °F 14.0 °F 74% 30.10 in 10.0 mi North 6.9 mph - 0.00 in   Partly Cloudy
1:15 AM 21.2 °F 11.7 °F 14.0 °F 74% 30.09 in 10.0 mi NNW 8.1 mph - 0.00 in   Mostly Cloudy
1:35 AM 21.2 °F 13.6 °F 14.0 °F 74% 30.08 in 10.0 mi NNW 5.8 mph - 0.00 in   Overcast
2:35 AM 21.2 °F 16.4 °F 14.0 °F 74% 30.07 in 10.0 mi NNW 3.5 mph - 0.00 in   Overcast
2:55 AM 21.2 °F 16.4 °F 14.0 °F 74% 30.07 in 10.0 mi NNW 3.5 mph - 0.00 in   Overcast
3:15 AM 19.4 °F 14.3 °F 14.0 °F 80% 30.06 in 10.0 mi NW 3.5 mph - 0.00 in   Overcast
3:35 AM 19.4 °F 14.3 °F 14.0 °F 80% 30.06 in 10.0 mi WNW 3.5 mph - 0.00 in   Mostly Cloudy
3:55 AM 19.4 °F 14.3 °F 14.0 °F 80% 30.05 in 10.0 mi NW 3.5 mph - 0.00 in   Mostly Cloudy
4:15 AM 19.4 °F - 14.0 °F 80% 30.05 in 10.0 mi Calm Calm - 0.00 in   Mostly Cloudy
4:35 AM 19.4 °F 14.3 °F 14.0 °F 80% 30.05 in 10.0 mi NW 3.5 mph - 0.00 in   Overcast
4:55 AM 19.4 °F - 14.0 °F 80% 30.04 in 10.0 mi Calm Calm - 0.00 in   Overcast
5:35 AM 19.4 °F - 14.0 °F 80% 30.03 in 10.0 mi Calm Calm - 0.00 in   Mostly Cloudy
5:55 AM 19.4 °F - 14.0 °F 80% 30.03 in 10.0 mi Calm Calm - 0.00 in   Mostly Cloudy
6:15 AM 19.4 °F 12.8 °F 14.0 °F 80% 30.02 in 10.0 mi WSW 4.6 mph - 0.00 in   Mostly Cloudy
6:35 AM 19.4 °F 9.5 °F 15.8 °F 86% 30.01 in 10.0 mi SW 8.1 mph - 0.00 in   Overcast
6:55 AM 21.2 °F 8.9 °F 14.0 °F 74% 30.01 in 10.0 mi WSW 12.7 mph - 0.00 in   Overcast
7:15 AM 21.2 °F 9.5 °F 12.2 °F 68% 30.01 in 10.0 mi WSW 11.5 mph - 0.00 in   Overcast
7:35 AM 21.2 °F 10.1 °F 12.2 °F 68% 30.02 in 10.0 mi West 10.4 mph - 0.00 in   Overcast
7:55 AM 19.4 °F 7.2 °F 12.2 °F 74% 30.01 in 10.0 mi West 11.5 mph 18.4 mph 0.00 in   Overcast
8:15 AM 19.4 °F 5.5 °F 12.2 °F 74% 30.01 in 10.0 mi West 15.0 mph - 0.00 in   Overcast
8:35 AM 19.4 °F 6.0 °F 12.2 °F 74% 30.02 in 10.0 mi West 13.8 mph 20.7 mph 0.00 in   Overcast
8:55 AM 19.4 °F 6.6 °F 12.2 °F 74% 30.01 in 10.0 mi West 12.7 mph 18.4 mph 0.00 in   Overcast
9:15 AM 19.4 °F 7.9 °F 12.2 °F 74% 30.01 in 8.0 mi West 10.4 mph 18.4 mph 0.00 in   Overcast
9:35 AM 19.4 °F 5.5 °F 14.0 °F 80% 30.01 in 5.0 mi West 15.0 mph 19.6 mph 0.00 in   Mostly Cloudy
9:55 AM 19.4 °F 6.6 °F 12.2 °F 74% 30.01 in 8.0 mi West 12.7 mph 18.4 mph 0.00 in   Mostly Cloudy
10:15 AM 19.4 °F 4.1 °F 10.4 °F 68% 30.01 in 10.0 mi West 18.4 mph 24.2 mph 0.00 in   Overcast
10:35 AM 19.4 °F 6.6 °F 10.4 °F 68% 30.02 in 10.0 mi West 12.7 mph - 0.00 in   Overcast
10:55 AM 19.4 °F 4.1 °F 10.4 °F 68% 30.02 in 10.0 mi West 18.4 mph 25.3 mph 0.00 in   Overcast
11:15 AM 19.4 °F 4.5 °F 10.4 °F 68% 30.02 in 8.0 mi West 17.3 mph 20.7 mph 0.00 in   Mostly Cloudy
11:35 AM 19.4 °F 5.5 °F 10.4 °F 68% 30.01 in 4.0 mi West 15.0 mph 21.9 mph 0.00 in   Mostly Cloudy
11:55 AM 19.4 °F 6.0 °F 10.4 °F 68% 30.00 in 9.0 mi West 13.8 mph - 0.00 in   Mostly Cloudy
12:15 PM 19.4 °F 5.5 °F 10.4 °F 68% 30.00 in 3.0 mi West 15.0 mph 20.7 mph 0.00 in   Mostly Cloudy
12:35 PM 19.4 °F 4.1 °F 12.2 °F 74% 29.99 in 1.8 mi West 18.4 mph 29.9 mph 0.00 in   Mostly Cloudy
12:55 PM 19.4 °F 2.5 °F 8.6 °F 63% 29.99 in 10.0 mi West 23.0 mph 29.9 mph 0.00 in   Mostly Cloudy
1:15 PM 17.6 °F 3.2 °F 5.0 °F 58% 30.00 in 10.0 mi West 15.0 mph 29.9 mph 0.00 in   Mostly Cloudy
1:35 PM 19.4 °F 4.1 °F 5.0 °F 54% 29.99 in 10.0 mi West 18.4 mph 28.8 mph 0.00 in   Scattered Clouds
1:55 PM 17.6 °F 2.7 °F 6.8 °F 63% 30.00 in 10.0 mi West 16.1 mph 24.2 mph 0.00 in   Scattered Clouds
2:15 PM 19.4 °F 3.2 °F 5.0 °F 54% 29.99 in 10.0 mi West 20.7 mph 26.5 mph 0.00 in   Scattered Clouds
2:35 PM 19.4 °F 4.1 °F 1.4 °F 46% 30.00 in 10.0 mi West 18.4 mph 28.8 mph 0.00 in   Mostly Cloudy
2:55 PM 17.6 °F 3.7 °F 1.4 °F 49% 30.01 in 10.0 mi West 13.8 mph 25.3 mph 0.00 in   Scattered Clouds
3:15 PM 17.6 °F 3.7 °F 3.2 °F 53% 30.01 in 10.0 mi West 13.8 mph 20.7 mph 0.00 in   Clear
3:35 PM 19.4 °F 3.6 °F 6.8 °F 58% 30.01 in 9.0 mi WSW 19.6 mph 25.3 mph 0.00 in   Partly Cloudy
3:55 PM 17.6 °F 1.3 °F 10.4 °F 73% 30.02 in 2.0 mi West 19.6 mph 25.3 mph 0.00 in   Scattered Clouds
4:15 PM 17.6 °F 2.7 °F 5.0 °F 58% 30.03 in 9.0 mi WNW 16.1 mph 27.6 mph 0.00 in   Partly Cloudy
4:35 PM 15.8 °F -1.1 °F 10.4 °F 79% 30.03 in 3.0 mi West 19.6 mph - 0.00 in   Scattered Clouds
4:55 PM 14.0 °F -2.5 °F 6.8 °F 73% 30.03 in 6.0 mi West 17.3 mph - 0.00 in   Mostly Cloudy
5:15 PM 14.0 °F -3.0 °F 5.0 °F 67% 30.05 in 5.0 mi West 18.4 mph 21.9 mph 0.00 in   Mostly Cloudy
5:35 PM 12.2 °F -3.1 °F 5.0 °F 73% 30.05 in 10.0 mi West 13.8 mph - 0.00 in   Mostly Cloudy
5:55 PM 12.2 °F -4.3 °F 1.4 °F 62% 30.06 in 10.0 mi West 16.1 mph 28.8 mph 0.00 in   Partly Cloudy
6:15 PM 12.2 °F -4.3 °F 1.4 °F 62% 30.07 in 10.0 mi West 16.1 mph 25.3 mph 0.00 in   Partly Cloudy
6:35 PM 12.2 °F -4.8 °F 1.4 °F 62% 30.07 in 10.0 mi West 17.3 mph 26.5 mph 0.00 in   Partly Cloudy
6:55 PM 12.2 °F -3.7 °F 1.4 °F 62% 30.07 in 10.0 mi West 15.0 mph 20.7 mph 0.00 in   Mostly Cloudy
7:15 PM 12.2 °F -3.1 °F -0.4 °F 57% 30.08 in 10.0 mi West 13.8 mph 26.5 mph 0.00 in   Mostly Cloudy
7:55 PM 10.4 °F -6.6 °F -0.4 °F 62% 30.08 in 10.0 mi West 16.1 mph - 0.00 in   Partly Cloudy
8:15 PM 10.4 °F -6.0 °F -0.4 °F 62% 30.08 in 10.0 mi West 15.0 mph 23.0 mph 0.00 in   Clear
8:35 PM 10.4 °F -5.4 °F -0.4 °F 62% 30.09 in 10.0 mi West 13.8 mph 21.9 mph 0.00 in   Clear
8:55 PM 10.4 °F -7.2 °F 1.4 °F 67% 30.09 in 10.0 mi West 17.3 mph 24.2 mph 0.00 in   Clear
9:15 PM 10.4 °F -6.0 °F 1.4 °F 67% 30.10 in 10.0 mi West 15.0 mph 23.0 mph 0.00 in   Clear
9:35 PM 10.4 °F -4.1 °F -0.4 °F 62% 30.10 in 10.0 mi West 11.5 mph - 0.00 in   Clear
9:55 PM 10.4 °F -5.4 °F -2.2 °F 57% 30.11 in 10.0 mi West 13.8 mph 24.2 mph 0.00 in   Clear
10:15 PM 10.4 °F -3.3 °F -2.2 °F 57% 30.11 in 10.0 mi West 10.4 mph - 0.00 in   Clear
10:35 PM 8.6 °F -7.7 °F -0.4 °F 67% 30.12 in 10.0 mi West 13.8 mph 17.3 mph 0.00 in   Clear
10:55 PM 8.6 °F -7.7 °F -0.4 °F 67% 30.12 in 10.0 mi West 13.8 mph 19.6 mph 0.00 in   Clear
11:15 PM 8.6 °F -7.0 °F -0.4 °F 67% 30.13 in 10.0 mi West 12.7 mph 16.1 mph 0.00 in   Clear
11:35 PM 8.6 °F -8.3 °F -0.4 °F 67% 30.13 in 10.0 mi West 15.0 mph - 0.00 in   Clear
11:55 PM 8.6 °F -7.0 °F -2.2 °F 62% 30.13 in 10.0 mi West 12.7 mph 19.6 mph 0.00 in   Clear